GFSNW_prec_precacc24_276.txt.gz
Total_Precipitation_Accumulation
0.09 0.11 0.12 0.11 0.10 0.11 0.09 0.02 0.00 0.00 0.00 0.00 0.00 0.00 0.00 0.00 0.00 0.00 0.00 0.00 0.00 0.00 0.00 0.00 0.00 0.00 0.00 0.00 0.00 0.00 0.00 0.00 0.00 0.00 0.00 0.00 0.00 0.00 0.00 0.02 0.02 0.02 0.08 0.13
0.15 0.17 0.21 0.25 0.23 0.22 0.18 0.07 0.01 0.02 0.00 0.00 0.00 0.00 0.00 0.00 0.00 0.00 0.00 0.00 0.00 0.00 0.00 0.00 0.00 0.00 0.00 0.00 0.00 0.00 0.00 0.00 0.00 0.00 0.00 0.00 0.00 0.00 0.00 0.00 0.01 0.01 0.05 0.12
0.14 0.17 0.22 0.24 0.28 0.34 0.29 0.11 0.03 0.04 0.06 0.00 0.00 0.00 0.00 0.00 0.00 0.00 0.00 0.00 0.00 0.00 0.00 0.00 0.00 0.00 0.00 0.00 0.00 0.00 0.00 0.00 0.00 0.00 0.00 0.00 0.00 0.00 0.00 0.00 0.01 0.02 0.03 0.03
0.11 0.15 0.20 0.28 0.36 0.41 0.55 0.30 0.08 0.02 0.10 0.10 0.00 0.00 0.00 0.00 0.00 0.00 0.00 0.00 0.00 0.00 0.00 0.00 0.00 0.00 0.00 0.00 0.00 0.00 0.00 0.00 0.00 0.00 0.00 0.00 0.00 0.00 0.00 0.00 0.00 0.01 0.01 0.00
0.16 0.21 0.26 0.37 0.51 0.58 0.68 0.39 0.14 0.03 0.00 0.00 0.00 0.00 0.00 0.00 0.00 0.00 0.00 0.00 0.00 0.00 0.00 0.00 0.00 0.00 0.00 0.00 0.00 0.00 0.00 0.00 0.00 0.00 0.00 0.00 0.00 0.00 0.00 0.00 0.00 0.00 0.00 0.00
0.21 0.18 0.26 0.40 0.54 0.83 0.82 0.34 0.18 0.13 0.05 0.00 0.00 0.00 0.00 0.00 0.00 0.00 0.00 0.00 0.00 0.00 0.00 0.00 0.00 0.00 0.00 0.00 0.00 0.00 0.00 0.00 0.00 0.00 0.00 0.00 0.00 0.00 0.00 0.00 0.00 0.00 0.00 0.00
0.28 0.31 0.29 0.34 0.60 0.81 0.62 0.43 0.33 0.27 0.13 0.02 0.00 0.00 0.00 0.00 0.00 0.00 0.00 0.00 0.00 0.00 0.00 0.00 0.00 0.00 0.00 0.00 0.00 0.00 0.00 0.00 0.00 0.00 0.00 0.00 0.00 0.00 0.00 0.00 0.00 0.00 0.00 0.00
0.28 0.24 0.30 0.44 0.49 0.75 0.81 0.45 0.45 0.38 0.22 0.07 0.02 0.00 0.00 0.00 0.00 0.00 0.00 0.00 0.00 0.00 0.00 0.00 0.00 0.00 0.00 0.00 0.00 0.00 0.00 0.00 0.00 0.00 0.00 0.00 0.00 0.00 0.00 0.00 0.00 0.00 0.00 0.00
0.41 0.44 0.44 0.39 0.39 0.61 0.82 0.57 0.50 0.49 0.33 0.06 0.03 0.03 0.00 0.00 0.00 0.00 0.00 0.00 0.00 0.00 0.00 0.00 0.00 0.00 0.00 0.00 0.00 0.00 0.00 0.00 0.00 0.00 0.00 0.00 0.00 0.00 0.00 0.00 0.00 0.00 0.00 0.00
0.32 0.35 0.39 0.40 0.48 0.60 0.80 0.65 0.41 0.60 0.42 0.04 0.02 0.06 0.04 0.00 0.00 0.00 0.00 0.00 0.00 0.00 0.00 0.00 0.00 0.00 0.00 0.00 0.00 0.00 0.00 0.00 0.00 0.00 0.00 0.00 0.00 0.00 0.00 0.00 0.00 0.00 0.00 0.00
0.31 0.37 0.40 0.37 0.35 0.49 0.83 0.72 0.29 0.53 0.48 0.09 0.00 0.01 0.04 0.02 0.00 0.01 0.00 0.00 0.00 0.00 0.00 0.00 0.00 0.00 0.00 0.00 0.00 0.00 0.00 0.00 0.00 0.00 0.00 0.00 0.00 0.00 0.00 0.00 0.00 0.00 0.00 0.00
0.28 0.33 0.39 0.47 0.52 0.49 0.73 0.74 0.27 0.39 0.61 0.17 0.01 0.00 0.00 0.00 0.00 0.02 0.02 0.00 0.00 0.00 0.00 0.00 0.00 0.00 0.00 0.00 0.00 0.00 0.00 0.00 0.00 0.00 0.00 0.00 0.00 0.00 0.00 0.00 0.00 0.00 0.00 0.00
0.28 0.34 0.39 0.45 0.43 0.55 0.88 0.68 0.20 0.51 0.59 0.25 0.03 0.00 0.00 0.00 0.00 0.00 0.04 0.00 0.01 0.00 0.00 0.00 0.00 0.00 0.00 0.00 0.00 0.00 0.00 0.00 0.00 0.00 0.00 0.00 0.00 0.00 0.00 0.00 0.00 0.00 0.00 0.00
0.28 0.33 0.35 0.45 0.52 0.53 0.86 0.87 0.26 0.39 0.56 0.47 0.07 0.00 0.00 0.00 0.00 0.00 0.02 0.00 0.01 0.02 0.02 0.02 0.01 0.00 0.00 0.00 0.00 0.00 0.00 0.00 0.00 0.00 0.00 0.00 0.00 0.00 0.00 0.00 0.00 0.00 0.00 0.00
0.28 0.34 0.40 0.45 0.49 0.55 0.94 0.71 0.24 0.29 0.45 0.39 0.11 0.02 0.00 0.00 0.00 0.00 0.01 0.00 0.04 0.12 0.13 0.09 0.02 0.00 0.00 0.00 0.00 0.00 0.00 0.00 0.00 0.00 0.00 0.00 0.00 0.00 0.00 0.00 0.00 0.00 0.00 0.00
0.31 0.38 0.39 0.45 0.59 0.80 1.70 1.74 0.51 0.18 0.32 0.48 0.23 0.06 0.00 0.00 0.00 0.00 0.01 0.02 0.03 0.16 0.34 0.13 0.02 0.00 0.00 0.00 0.00 0.00 0.00 0.00 0.00 0.00 0.00 0.00 0.00 0.00 0.00 0.00 0.00 0.00 0.00 0.00
0.31 0.38 0.43 0.49 0.67 1.24 1.64 1.11 0.50 0.10 0.23 0.63 0.33 0.15 0.02 0.00 0.01 0.01 0.03 0.10 0.11 0.21 0.42 0.25 0.04 0.00 0.03 0.02 0.00 0.00 0.00 0.00 0.00 0.00 0.00 0.00 0.00 0.00 0.00 0.00 0.00 0.00 0.00 0.00
0.41 0.42 0.44 0.59 1.00 1.33 0.90 0.24 0.16 0.25 0.58 0.54 0.42 0.36 0.14 0.05 0.06 0.05 0.06 0.13 0.19 0.31 0.36 0.26 0.09 0.03 0.04 0.06 0.00 0.00 0.00 0.00 0.00 0.00 0.00 0.00 0.00 0.00 0.00 0.00 0.00 0.00 0.00 0.00
0.59 0.63 0.80 1.28 2.01 2.07 0.69 0.16 0.22 0.54 0.95 0.77 0.30 0.28 0.38 0.15 0.12 0.09 0.14 0.17 0.27 0.34 0.38 0.21 0.13 0.17 0.12 0.02 0.00 0.00 0.00 0.00 0.00 0.00 0.00 0.00 0.00 0.00 0.00 0.00 0.00 0.00 0.00 0.00
0.95 1.77 2.45 2.65 1.61 0.62 0.59 0.96 1.28 1.62 1.51 0.69 0.26 0.07 0.30 0.30 0.16 0.16 0.19 0.22 0.20 0.30 0.21 0.13 0.19 0.14 0.02 0.00 0.00 0.00 0.00 0.00 0.00 0.00 0.00 0.00 0.00 0.00 0.00 0.00 0.00 0.00 0.00 0.00
2.48 2.48 1.50 1.01 0.73 0.86 1.31 2.00 1.59 1.37 1.12 0.48 0.10 0.12 0.11 0.19 0.39 0.26 0.18 0.26 0.19 0.13 0.10 0.13 0.11 0.02 0.00 0.00 0.00 0.00 0.00 0.00 0.00 0.00 0.00 0.00 0.00 0.00 0.00 0.00 0.00 0.00 0.00 0.00
1.32 1.00 1.04 1.30 1.09 1.26 1.37 1.07 0.85 0.39 0.39 0.12 0.06 0.14 0.07 0.09 0.27 0.53 0.38 0.23 0.20 0.11 0.01 0.08 0.05 0.00 0.00 0.00 0.00 0.00 0.00 0.00 0.00 0.00 0.00 0.00 0.00 0.00 0.00 0.00 0.00 0.00 0.00 0.00
0.64 0.93 1.01 1.09 1.24 0.86 0.69 0.54 0.40 0.25 0.11 0.07 0.05 0.16 0.20 0.16 0.24 0.47 0.45 0.37 0.20 0.07 0.14 0.06 0.00 0.00 0.00 0.00 0.00 0.00 0.00 0.00 0.00 0.00 0.00 0.00 0.00 0.00 0.00 0.00 0.00 0.00 0.00 0.00
0.73 0.71 0.87 0.60 0.56 0.28 0.12 0.12 0.08 0.08 0.05 0.07 0.03 0.18 0.36 0.16 0.22 0.28 0.31 0.19 0.21 0.13 0.04 0.03 0.00 0.00 0.00 0.00 0.00 0.00 0.00 0.00 0.00 0.00 0.00 0.00 0.00 0.00 0.00 0.00 0.00 0.00 0.00 0.00
0.43 0.35 0.32 0.17 0.13 0.05 0.02 0.03 0.02 0.09 0.04 0.05 0.05 0.13 0.35 0.28 0.18 0.27 0.22 0.29 0.22 0.10 0.01 0.00 0.00 0.00 0.00 0.00 0.00 0.00 0.00 0.00 0.00 0.00 0.00 0.00 0.00 0.00 0.00 0.00 0.00 0.00 0.00 0.00
0.25 0.28 0.25 0.12 0.11 0.07 0.08 0.06 0.04 0.09 0.06 0.06 0.13 0.30 0.50 0.52 0.22 0.21 0.24 0.11 0.10 0.01 0.00 0.00 0.00 0.00 0.00 0.00 0.00 0.00 0.00 0.00 0.00 0.00 0.00 0.00 0.00 0.00 0.00 0.00 0.00 0.00 0.00 0.00
0.19 0.22 0.16 0.10 0.13 0.14 0.06 0.05 0.04 0.08 0.08 0.09 0.13 0.27 0.47 0.42 0.33 0.10 0.05 0.06 0.01 0.01 0.00 0.00 0.00 0.00 0.00 0.00 0.00 0.00 0.00 0.00 0.00 0.00 0.00 0.00 0.00 0.00 0.00 0.00 0.00 0.00 0.00 0.00

GFSNW_prec_precacc24_279.txt.gz
Total_Precipitation_Accumulation
0.09 0.11 0.12 0.10 0.10 0.11 0.11 0.05 0.01 0.00 0.00 0.00 0.00 0.00 0.00 0.00 0.00 0.00 0.00 0.00 0.00 0.00 0.00 0.00 0.00 0.00 0.00 0.00 0.00 0.00 0.00 0.00 0.00 0.00 0.00 0.00 0.00 0.00 0.00 0.02 0.01 0.01 0.06 0.10
0.16 0.17 0.21 0.24 0.23 0.23 0.22 0.14 0.02 0.02 0.00 0.00 0.00 0.00 0.00 0.00 0.00 0.00 0.00 0.00 0.00 0.00 0.00 0.00 0.00 0.00 0.00 0.00 0.00 0.00 0.00 0.00 0.00 0.00 0.00 0.00 0.00 0.00 0.00 0.00 0.01 0.01 0.05 0.12
0.15 0.18 0.22 0.23 0.26 0.36 0.36 0.17 0.05 0.05 0.07 0.01 0.00 0.00 0.00 0.00 0.00 0.00 0.00 0.00 0.00 0.00 0.00 0.00 0.00 0.00 0.00 0.00 0.00 0.00 0.00 0.00 0.00 0.00 0.00 0.00 0.00 0.00 0.00 0.00 0.01 0.02 0.02 0.02
0.11 0.16 0.21 0.27 0.34 0.43 0.62 0.35 0.13 0.02 0.11 0.11 0.00 0.00 0.00 0.00 0.00 0.00 0.00 0.00 0.00 0.00 0.00 0.00 0.00 0.00 0.00 0.00 0.00 0.00 0.00 0.00 0.00 0.00 0.00 0.00 0.00 0.00 0.00 0.00 0.00 0.01 0.01 0.00
0.14 0.20 0.27 0.37 0.48 0.58 0.72 0.44 0.20 0.08 0.00 0.00 0.00 0.00 0.00 0.00 0.00 0.00 0.00 0.00 0.00 0.00 0.00 0.00 0.00 0.00 0.00 0.00 0.00 0.00 0.00 0.00 0.00 0.00 0.00 0.00 0.00 0.00 0.00 0.00 0.00 0.00 0.00 0.00
0.16 0.20 0.29 0.40 0.51 0.82 0.89 0.36 0.23 0.20 0.09 0.02 0.00 0.01 0.00 0.00 0.00 0.00 0.00 0.00 0.00 0.00 0.00 0.00 0.00 0.00 0.00 0.00 0.00 0.00 0.00 0.00 0.00 0.00 0.00 0.00 0.00 0.00 0.00 0.00 0.00 0.00 0.00 0.00
0.13 0.24 0.31 0.36 0.59 0.80 0.62 0.47 0.36 0.31 0.15 0.08 0.03 0.00 0.00 0.00 0.00 0.00 0.00 0.00 0.00 0.00 0.00 0.00 0.00 0.00 0.00 0.00 0.00 0.00 0.00 0.00 0.00 0.00 0.00 0.00 0.00 0.00 0.00 0.00 0.00 0.00 0.00 0.00
0.16 0.18 0.31 0.48 0.51 0.73 0.81 0.46 0.45 0.41 0.24 0.08 0.05 0.02 0.00 0.00 0.00 0.00 0.00 0.00 0.00 0.00 0.00 0.00 0.00 0.00 0.00 0.00 0.00 0.00 0.00 0.00 0.00 0.00 0.00 0.00 0.00 0.00 0.00 0.00 0.00 0.00 0.00 0.00
0.19 0.23 0.37 0.44 0.44 0.62 0.82 0.58 0.51 0.51 0.36 0.06 0.03 0.04 0.01 0.00 0.00 0.00 0.00 0.00 0.00 0.00 0.00 0.00 0.00 0.00 0.00 0.00 0.00 0.00 0.00 0.00 0.00 0.00 0.00 0.00 0.00 0.00 0.00 0.00 0.00 0.00 0.00 0.00
0.16 0.20 0.30 0.40 0.50 0.61 0.83 0.65 0.42 0.61 0.45 0.04 0.02 0.06 0.06 0.04 0.01 0.00 0.00 0.00 0.00 0.00 0.00 0.00 0.00 0.00 0.00 0.00 0.00 0.00 0.00 0.00 0.00 0.00 0.00 0.00 0.00 0.00 0.00 0.00 0.00 0.00 0.00 0.00
0.11 0.13 0.21 0.39 0.39 0.50 0.93 0.77 0.29 0.53 0.48 0.09 0.00 0.01 0.05 0.04 0.04 0.03 0.01 0.00 0.00 0.00 0.00 0.00 0.00 0.00 0.00 0.00 0.00 0.00 0.00 0.00 0.00 0.00 0.00 0.00 0.00 0.00 0.00 0.00 0.00 0.00 0.00 0.00
0.11 0.12 0.17 0.37 0.55 0.52 0.79 0.81 0.27 0.39 0.61 0.17 0.01 0.00 0.00 0.00 0.01 0.04 0.03 0.00 0.00 0.00 0.00 0.00 0.00 0.00 0.00 0.00 0.00 0.00 0.00 0.00 0.00 0.00 0.00 0.00 0.00 0.00 0.00 0.00 0.00 0.00 0.00 0.00
0.11 0.12 0.17 0.34 0.42 0.59 0.93 0.73 0.22 0.52 0.60 0.25 0.03 0.00 0.00 0.00 0.00 0.00 0.05 0.02 0.05 0.02 0.00 0.00 0.00 0.00 0.00 0.00 0.00 0.00 0.00 0.00 0.00 0.00 0.00 0.00 0.00 0.00 0.00 0.00 0.00 0.00 0.00 0.00
0.08 0.11 0.17 0.35 0.50 0.52 0.89 0.96 0.30 0.40 0.56 0.47 0.07 0.00 0.00 0.00 0.00 0.00 0.02 0.01 0.08 0.18 0.10 0.03 0.01 0.00 0.00 0.00 0.00 0.00 0.00 0.00 0.00 0.00 0.00 0.00 0.00 0.00 0.00 0.00 0.00 0.00 0.00 0.00
0.09 0.10 0.16 0.34 0.49 0.51 0.91 0.78 0.36 0.34 0.47 0.39 0.11 0.02 0.00 0.00 0.00 0.00 0.01 0.00 0.04 0.16 0.35 0.26 0.05 0.00 0.00 0.00 0.00 0.00 0.00 0.00 0.00 0.00 0.00 0.00 0.00 0.00 0.00 0.00 0.00 0.00 0.00 0.00
0.11 0.12 0.17 0.34 0.59 0.76 1.60 1.76 0.59 0.27 0.37 0.49 0.23 0.06 0.00 0.00 0.00 0.00 0.01 0.02 0.03 0.17 0.43 0.26 0.09 0.04 0.02 0.00 0.00 0.00 0.00 0.00 0.00 0.00 0.00 0.00 0.00 0.00 0.00 0.00 0.00 0.00 0.00 0.00
0.12 0.14 0.22 0.43 0.65 1.17 1.61 1.16 0.52 0.14 0.28 0.64 0.33 0.15 0.02 0.00 0.01 0.01 0.03 0.10 0.11 0.22 0.44 0.30 0.08 0.02 0.10 0.12 0.01 0.00 0.00 0.00 0.00 0.00 0.00 0.00 0.00 0.00 0.00 0.00 0.00 0.00 0.00 0.00
0.17 0.19 0.30 0.53 0.95 1.25 0.95 0.26 0.18 0.30 0.72 0.59 0.42 0.36 0.14 0.05 0.06 0.05 0.06 0.13 0.19 0.32 0.37 0.26 0.11 0.05 0.05 0.12 0.01 0.00 0.00 0.00 0.00 0.00 0.00 0.00 0.00 0.00 0.00 0.00 0.00 0.00 0.00 0.00
0.27 0.41 0.70 1.22 1.89 1.94 0.69 0.19 0.29 0.65 1.06 0.80 0.30 0.28 0.37 0.15 0.12 0.09 0.14 0.18 0.27 0.35 0.38 0.21 0.15 0.21 0.15 0.02 0.00 0.00 0.00 0.00 0.00 0.00 0.00 0.00 0.00 0.00 0.00 0.00 0.00 0.00 0.00 0.00
0.56 1.41 2.28 2.44 1.39 0.56 0.63 1.21 1.54 1.77 1.57 0.69 0.26 0.07 0.30 0.30 0.16 0.16 0.19 0.24 0.22 0.32 0.21 0.16 0.22 0.15 0.02 0.00 0.00 0.00 0.00 0.00 0.00 0.00 0.00 0.00 0.00 0.00 0.00 0.00 0.00 0.00 0.00 0.00
2.15 2.34 1.34 0.84 0.64 0.85 1.48 2.22 1.63 1.37 1.13 0.48 0.10 0.12 0.10 0.19 0.39 0.26 0.18 0.29 0.28 0.18 0.11 0.17 0.13 0.02 0.00 0.00 0.00 0.00 0.00 0.00 0.00 0.00 0.00 0.00 0.00 0.00 0.00 0.00 0.00 0.00 0.00 0.00
1.36 0.95 0.83 1.29 1.25 1.25 1.43 1.16 0.87 0.39 0.39 0.12 0.06 0.14 0.07 0.09 0.27 0.53 0.38 0.23 0.25 0.20 0.05 0.10 0.05 0.00 0.00 0.00 0.00 0.00 0.00 0.00 0.00 0.00 0.00 0.00 0.00 0.00 0.00 0.00 0.00 0.00 0.00 0.00
0.68 0.93 0.98 1.09 1.21 0.84 0.68 0.54 0.40 0.25 0.11 0.07 0.05 0.16 0.20 0.16 0.24 0.47 0.45 0.37 0.20 0.15 0.23 0.10 0.00 0.00 0.00 0.00 0.00 0.00 0.00 0.00 0.00 0.00 0.00 0.00 0.00 0.00 0.00 0.00 0.00 0.00 0.00 0.00
0.77 0.71 0.88 0.59 0.56 0.28 0.12 0.12 0.08 0.08 0.05 0.07 0.03 0.18 0.36 0.16 0.22 0.28 0.31 0.18 0.21 0.15 0.08 0.05 0.00 0.00 0.00 0.00 0.00 0.00 0.00 0.00 0.00 0.00 0.00 0.00 0.00 0.00 0.00 0.00 0.00 0.00 0.00 0.00
0.43 0.35 0.32 0.17 0.13 0.05 0.02 0.03 0.02 0.09 0.04 0.05 0.05 0.13 0.35 0.28 0.18 0.27 0.22 0.28 0.22 0.12 0.01 0.00 0.00 0.00 0.00 0.00 0.00 0.00 0.00 0.00 0.00 0.00 0.00 0.00 0.00 0.00 0.00 0.00 0.00 0.00 0.00 0.00
0.25 0.28 0.25 0.12 0.11 0.07 0.08 0.06 0.04 0.09 0.06 0.06 0.13 0.30 0.50 0.52 0.22 0.21 0.24 0.11 0.11 0.01 0.00 0.00 0.00 0.00 0.00 0.00 0.00 0.00 0.00 0.00 0.00 0.00 0.00 0.00 0.00 0.00 0.00 0.00 0.00 0.00 0.00 0.00
0.19 0.22 0.16 0.10 0.13 0.14 0.06 0.05 0.04 0.08 0.09 0.09 0.13 0.27 0.47 0.42 0.33 0.10 0.05 0.06 0.01 0.01 0.00 0.00 0.00 0.00 0.00 0.00 0.00 0.00 0.00 0.00 0.00 0.00 0.00 0.00 0.00 0.00 0.00 0.00 0.00 0.00 0.00 0.00

GFSNW_prec_precacc24_285.txt.gz
Total_Precipitation_Accumulation
0.06 0.10 0.13 0.10 0.09 0.10 0.14 0.12 0.05 0.02 0.00 0.00 0.00 0.00 0.00 0.00 0.00 0.00 0.00 0.00 0.00 0.00 0.00 0.00 0.00 0.00 0.00 0.00 0.00 0.00 0.00 0.00 0.00 0.00 0.00 0.00 0.00 0.00 0.00 0.00 0.00 0.00 0.01 0.04
0.06 0.11 0.20 0.25 0.21 0.23 0.25 0.24 0.06 0.06 0.01 0.01 0.01 0.00 0.00 0.00 0.00 0.00 0.00 0.00 0.00 0.00 0.00 0.00 0.00 0.00 0.00 0.00 0.00 0.00 0.00 0.00 0.00 0.00 0.00 0.00 0.00 0.00 0.00 0.00 0.00 0.00 0.01 0.04
0.06 0.10 0.18 0.24 0.25 0.36 0.39 0.26 0.10 0.08 0.11 0.02 0.00 0.00 0.00 0.00 0.00 0.00 0.00 0.00 0.00 0.00 0.00 0.00 0.00 0.00 0.00 0.00 0.00 0.00 0.00 0.00 0.00 0.00 0.00 0.00 0.00 0.00 0.00 0.00 0.00 0.01 0.00 0.00
0.07 0.05 0.13 0.23 0.33 0.43 0.64 0.41 0.18 0.08 0.16 0.13 0.01 0.00 0.00 0.00 0.00 0.00 0.00 0.00 0.00 0.00 0.00 0.00 0.00 0.00 0.00 0.00 0.00 0.00 0.00 0.00 0.00 0.00 0.00 0.00 0.00 0.00 0.00 0.00 0.00 0.00 0.00 0.00
0.06 0.05 0.09 0.22 0.43 0.58 0.76 0.50 0.26 0.16 0.04 0.03 0.03 0.01 0.00 0.00 0.00 0.00 0.00 0.00 0.00 0.00 0.00 0.00 0.00 0.00 0.00 0.00 0.00 0.00 0.00 0.00 0.00 0.00 0.00 0.00 0.00 0.00 0.00 0.00 0.00 0.00 0.00 0.00
0.10 0.12 0.13 0.17 0.39 0.79 0.89 0.38 0.27 0.24 0.12 0.07 0.04 0.05 0.02 0.00 0.00 0.00 0.00 0.00 0.00 0.00 0.00 0.00 0.00 0.00 0.00 0.00 0.00 0.00 0.00 0.00 0.00 0.00 0.00 0.00 0.00 0.00 0.00 0.00 0.00 0.00 0.00 0.00
0.10 0.14 0.16 0.12 0.23 0.67 0.64 0.49 0.41 0.38 0.18 0.13 0.11 0.04 0.02 0.01 0.00 0.00 0.00 0.00 0.00 0.00 0.00 0.00 0.00 0.00 0.00 0.00 0.00 0.00 0.00 0.00 0.00 0.00 0.00 0.00 0.00 0.00 0.00 0.00 0.00 0.00 0.00 0.00
0.17 0.16 0.19 0.16 0.15 0.56 0.78 0.48 0.47 0.47 0.28 0.10 0.07 0.04 0.02 0.03 0.01 0.01 0.00 0.00 0.00 0.00 0.00 0.00 0.00 0.00 0.00 0.00 0.00 0.00 0.00 0.00 0.00 0.00 0.00 0.00 0.00 0.00 0.00 0.00 0.00 0.00 0.00 0.00
0.20 0.21 0.24 0.22 0.14 0.35 0.71 0.55 0.52 0.55 0.40 0.08 0.04 0.04 0.02 0.04 0.07 0.05 0.01 0.00 0.00 0.00 0.00 0.00 0.00 0.00 0.00 0.00 0.00 0.00 0.00 0.00 0.00 0.00 0.00 0.00 0.00 0.00 0.00 0.00 0.00 0.00 0.00 0.00
0.17 0.20 0.23 0.17 0.15 0.23 0.66 0.58 0.42 0.62 0.45 0.05 0.02 0.07 0.10 0.08 0.06 0.08 0.05 0.02 0.01 0.00 0.01 0.01 0.00 0.00 0.00 0.00 0.00 0.00 0.00 0.00 0.00 0.00 0.00 0.00 0.00 0.00 0.00 0.00 0.00 0.00 0.00 0.00
0.10 0.12 0.18 0.26 0.22 0.22 0.68 0.57 0.31 0.55 0.48 0.09 0.00 0.01 0.05 0.05 0.09 0.12 0.10 0.06 0.04 0.04 0.02 0.01 0.00 0.00 0.00 0.00 0.00 0.00 0.00 0.00 0.00 0.00 0.00 0.00 0.00 0.00 0.00 0.00 0.00 0.00 0.00 0.00
0.11 0.10 0.14 0.22 0.33 0.30 0.54 0.52 0.28 0.47 0.64 0.18 0.01 0.00 0.00 0.01 0.03 0.06 0.09 0.06 0.07 0.08 0.05 0.01 0.00 0.00 0.00 0.00 0.00 0.00 0.00 0.00 0.00 0.00 0.00 0.00 0.00 0.00 0.00 0.00 0.00 0.00 0.00 0.00
0.09 0.10 0.13 0.16 0.19 0.35 0.51 0.36 0.26 0.72 0.61 0.22 0.03 0.00 0.00 0.00 0.00 0.00 0.09 0.14 0.25 0.16 0.02 0.03 0.05 0.02 0.00 0.00 0.00 0.00 0.00 0.00 0.00 0.00 0.00 0.00 0.00 0.00 0.00 0.00 0.00 0.00 0.00 0.00
0.06 0.08 0.13 0.18 0.21 0.27 0.59 0.53 0.17 0.48 0.59 0.44 0.07 0.00 0.00 0.00 0.00 0.00 0.02 0.06 0.23 0.38 0.21 0.07 0.03 0.03 0.00 0.00 0.00 0.00 0.00 0.00 0.00 0.00 0.00 0.00 0.00 0.00 0.00 0.00 0.00 0.00 0.00 0.00
0.06 0.06 0.10 0.16 0.21 0.28 0.62 0.46 0.20 0.31 0.58 0.49 0.13 0.02 0.00 0.00 0.00 0.00 0.01 0.00 0.06 0.29 0.52 0.41 0.12 0.03 0.04 0.01 0.01 0.00 0.00 0.00 0.00 0.00 0.00 0.00 0.00 0.00 0.00 0.00 0.00 0.00 0.00 0.00
0.10 0.09 0.11 0.16 0.25 0.48 1.03 1.14 0.33 0.21 0.49 0.66 0.26 0.07 0.00 0.00 0.00 0.00 0.01 0.02 0.03 0.19 0.53 0.39 0.19 0.09 0.09 0.05 0.02 0.00 0.00 0.00 0.00 0.00 0.00 0.00 0.00 0.00 0.00 0.00 0.00 0.00 0.00 0.00
0.13 0.12 0.14 0.19 0.31 0.58 0.92 0.74 0.22 0.11 0.31 0.76 0.38 0.16 0.03 0.00 0.01 0.01 0.03 0.10 0.11 0.21 0.45 0.33 0.12 0.06 0.32 0.29 0.03 0.00 0.00 0.00 0.00 0.00 0.00 0.00 0.00 0.00 0.00 0.00 0.00 0.00 0.00 0.00
0.20 0.17 0.17 0.24 0.44 0.67 0.60 0.18 0.15 0.35 0.99 0.81 0.49 0.35 0.12 0.04 0.05 0.05 0.06 0.12 0.19 0.32 0.37 0.27 0.13 0.07 0.14 0.23 0.01 0.00 0.00 0.00 0.00 0.00 0.00 0.00 0.00 0.00 0.00 0.00 0.00 0.00 0.00 0.00
0.36 0.34 0.47 0.73 1.05 1.14 0.39 0.17 0.30 0.64 1.10 0.91 0.33 0.30 0.39 0.13 0.09 0.09 0.13 0.17 0.26 0.34 0.36 0.21 0.16 0.22 0.20 0.03 0.00 0.00 0.00 0.00 0.00 0.00 0.00 0.00 0.00 0.00 0.00 0.00 0.00 0.00 0.00 0.00
0.63 0.98 1.57 1.62 0.80 0.26 0.41 1.10 1.59 1.71 1.63 0.75 0.28 0.08 0.32 0.28 0.16 0.17 0.21 0.26 0.24 0.33 0.21 0.15 0.22 0.15 0.02 0.00 0.00 0.00 0.00 0.00 0.00 0.00 0.00 0.00 0.00 0.00 0.00 0.00 0.00 0.00 0.00 0.00
2.23 1.87 0.80 0.62 0.47 0.44 0.90 1.57 1.22 1.00 0.98 0.49 0.10 0.12 0.13 0.20 0.41 0.28 0.19 0.30 0.30 0.20 0.12 0.20 0.14 0.02 0.00 0.00 0.00 0.00 0.00 0.00 0.00 0.00 0.00 0.00 0.00 0.00 0.00 0.00 0.00 0.00 0.00 0.00
1.29 0.58 0.47 1.11 0.93 0.70 0.98 0.81 0.66 0.37 0.36 0.12 0.06 0.14 0.08 0.11 0.26 0.54 0.39 0.23 0.25 0.20 0.09 0.23 0.11 0.00 0.00 0.00 0.00 0.00 0.00 0.00 0.00 0.00 0.00 0.00 0.00 0.00 0.00 0.00 0.00 0.00 0.00 0.00
0.69 0.68 0.60 0.70 0.81 0.57 0.44 0.34 0.30 0.23 0.11 0.07 0.04 0.14 0.19 0.17 0.25 0.49 0.47 0.39 0.21 0.15 0.22 0.12 0.01 0.00 0.00 0.00 0.00 0.00 0.00 0.00 0.00 0.00 0.00 0.00 0.00 0.00 0.00 0.00 0.00 0.00 0.00 0.00
0.80 0.62 0.61 0.38 0.48 0.20 0.10 0.10 0.07 0.08 0.05 0.07 0.02 0.17 0.35 0.16 0.22 0.29 0.32 0.18 0.20 0.14 0.07 0.05 0.00 0.00 0.00 0.00 0.00 0.00 0.00 0.00 0.00 0.00 0.00 0.00 0.00 0.00 0.00 0.00 0.00 0.00 0.00 0.00
0.27 0.20 0.24 0.14 0.13 0.06 0.02 0.03 0.03 0.09 0.04 0.05 0.06 0.13 0.35 0.29 0.19 0.28 0.23 0.28 0.22 0.12 0.01 0.00 0.00 0.00 0.00 0.00 0.00 0.00 0.00 0.00 0.00 0.00 0.00 0.00 0.00 0.00 0.00 0.00 0.00 0.00 0.00 0.00
0.14 0.24 0.26 0.13 0.12 0.07 0.08 0.06 0.05 0.09 0.06 0.06 0.14 0.30 0.49 0.53 0.23 0.21 0.25 0.11 0.11 0.01 0.00 0.00 0.00 0.00 0.00 0.00 0.00 0.00 0.00 0.00 0.00 0.00 0.00 0.00 0.00 0.00 0.00 0.00 0.00 0.00 0.00 0.00
0.19 0.22 0.16 0.11 0.15 0.15 0.06 0.05 0.04 0.08 0.09 0.10 0.13 0.27 0.47 0.43 0.34 0.10 0.05 0.06 0.01 0.01 0.00 0.00 0.00 0.00 0.00 0.00 0.00 0.00 0.00 0.00 0.00 0.00 0.00 0.00 0.00 0.00 0.00 0.00 0.00 0.00 0.00 0.00

GFSNW_prec_precacc24_291.txt.gz
Total_Precipitation_Accumulation
0.04 0.06 0.06 0.06 0.06 0.09 0.14 0.15 0.07 0.07 0.06 0.04 0.02 0.01 0.00 0.00 0.00 0.00 0.00 0.00 0.00 0.00 0.00 0.00 0.00 0.00 0.00 0.00 0.00 0.00 0.00 0.00 0.00 0.00 0.00 0.00 0.00 0.00 0.00 0.00 0.00 0.00 0.00 0.00
0.04 0.06 0.07 0.07 0.10 0.20 0.26 0.27 0.07 0.07 0.09 0.08 0.03 0.01 0.00 0.00 0.00 0.00 0.00 0.00 0.00 0.00 0.00 0.00 0.00 0.00 0.00 0.00 0.00 0.00 0.00 0.00 0.00 0.00 0.00 0.00 0.00 0.00 0.00 0.00 0.00 0.00 0.00 0.00
0.05 0.06 0.09 0.10 0.12 0.30 0.39 0.29 0.11 0.07 0.18 0.04 0.03 0.07 0.01 0.00 0.00 0.00 0.00 0.00 0.00 0.00 0.00 0.00 0.00 0.00 0.00 0.00 0.00 0.00 0.00 0.00 0.00 0.00 0.00 0.00 0.00 0.00 0.00 0.00 0.00 0.00 0.00 0.00
0.07 0.05 0.10 0.10 0.11 0.32 0.60 0.41 0.17 0.13 0.17 0.17 0.03 0.03 0.05 0.01 0.00 0.00 0.00 0.00 0.00 0.00 0.00 0.00 0.00 0.00 0.00 0.00 0.00 0.00 0.00 0.00 0.00 0.00 0.00 0.00 0.00 0.00 0.00 0.00 0.00 0.00 0.00 0.00
0.07 0.06 0.08 0.13 0.12 0.33 0.59 0.51 0.28 0.18 0.05 0.05 0.06 0.03 0.01 0.00 0.00 0.00 0.00 0.00 0.00 0.00 0.00 0.00 0.00 0.00 0.00 0.00 0.00 0.00 0.00 0.00 0.00 0.00 0.00 0.00 0.00 0.00 0.00 0.00 0.00 0.00 0.00 0.00
0.11 0.13 0.13 0.14 0.14 0.25 0.52 0.39 0.33 0.28 0.11 0.07 0.06 0.09 0.08 0.02 0.00 0.00 0.00 0.00 0.00 0.00 0.00 0.00 0.00 0.00 0.00 0.00 0.00 0.00 0.00 0.00 0.00 0.00 0.00 0.00 0.00 0.00 0.00 0.00 0.00 0.00 0.00 0.00
0.10 0.14 0.17 0.14 0.10 0.25 0.33 0.39 0.52 0.52 0.20 0.14 0.14 0.07 0.06 0.06 0.01 0.01 0.00 0.00 0.00 0.00 0.00 0.00 0.00 0.00 0.00 0.00 0.00 0.00 0.00 0.00 0.00 0.00 0.00 0.00 0.00 0.00 0.00 0.00 0.00 0.00 0.00 0.00
0.17 0.16 0.20 0.18 0.10 0.24 0.30 0.22 0.42 0.51 0.30 0.10 0.09 0.07 0.04 0.03 0.02 0.02 0.00 0.00 0.00 0.00 0.00 0.00 0.01 0.00 0.00 0.00 0.00 0.00 0.00 0.00 0.00 0.00 0.00 0.00 0.00 0.00 0.00 0.00 0.00 0.00 0.00 0.00
0.20 0.21 0.24 0.24 0.13 0.21 0.37 0.26 0.32 0.54 0.44 0.08 0.05 0.06 0.03 0.06 0.10 0.09 0.03 0.00 0.00 0.00 0.00 0.02 0.02 0.00 0.00 0.00 0.00 0.00 0.00 0.00 0.00 0.00 0.00 0.00 0.00 0.00 0.00 0.00 0.00 0.00 0.00 0.00
0.17 0.21 0.23 0.19 0.15 0.17 0.45 0.37 0.27 0.48 0.44 0.03 0.04 0.08 0.13 0.14 0.11 0.14 0.15 0.08 0.05 0.04 0.02 0.03 0.01 0.00 0.00 0.00 0.00 0.00 0.00 0.00 0.01 0.00 0.00 0.00 0.00 0.00 0.00 0.00 0.00 0.00 0.00 0.00
0.09 0.11 0.17 0.27 0.22 0.18 0.49 0.34 0.24 0.42 0.44 0.05 0.00 0.02 0.06 0.06 0.11 0.20 0.28 0.21 0.18 0.21 0.10 0.01 0.01 0.00 0.00 0.00 0.00 0.00 0.00 0.00 0.00 0.01 0.00 0.00 0.00 0.00 0.00 0.00 0.00 0.00 0.00 0.00
0.11 0.10 0.13 0.21 0.33 0.29 0.44 0.31 0.22 0.31 0.53 0.13 0.03 0.00 0.00 0.01 0.04 0.08 0.12 0.38 0.38 0.35 0.27 0.07 0.02 0.00 0.00 0.00 0.01 0.00 0.00 0.00 0.00 0.00 0.00 0.00 0.00 0.00 0.00 0.00 0.00 0.00 0.00 0.00
0.09 0.10 0.12 0.15 0.19 0.36 0.48 0.32 0.25 0.44 0.33 0.09 0.01 0.00 0.00 0.00 0.00 0.00 0.07 0.22 0.39 0.31 0.15 0.11 0.10 0.08 0.01 0.00 0.00 0.01 0.02 0.00 0.00 0.00 0.00 0.00 0.00 0.00 0.00 0.00 0.00 0.00 0.00 0.00
0.07 0.09 0.13 0.16 0.19 0.26 0.53 0.46 0.18 0.27 0.32 0.23 0.05 0.01 0.01 0.01 0.00 0.00 0.01 0.06 0.25 0.40 0.27 0.11 0.07 0.11 0.08 0.02 0.01 0.01 0.01 0.02 0.02 0.00 0.00 0.00 0.00 0.00 0.00 0.00 0.00 0.00 0.00 0.00
0.09 0.09 0.11 0.16 0.20 0.25 0.53 0.41 0.23 0.15 0.28 0.34 0.12 0.03 0.01 0.00 0.00 0.00 0.00 0.00 0.06 0.31 0.53 0.45 0.16 0.07 0.12 0.04 0.01 0.00 0.00 0.02 0.03 0.00 0.00 0.00 0.00 0.00 0.00 0.00 0.00 0.00 0.00 0.00
0.15 0.15 0.15 0.18 0.24 0.41 0.84 0.90 0.31 0.16 0.26 0.34 0.11 0.04 0.00 0.00 0.00 0.00 0.00 0.01 0.01 0.17 0.53 0.38 0.20 0.10 0.11 0.08 0.03 0.00 0.01 0.00 0.00 0.00 0.01 0.01 0.00 0.00 0.00 0.00 0.00 0.00 0.00 0.00
0.16 0.15 0.16 0.21 0.29 0.48 0.76 0.60 0.31 0.22 0.33 0.37 0.15 0.05 0.02 0.00 0.01 0.01 0.01 0.05 0.07 0.14 0.44 0.32 0.12 0.07 0.34 0.31 0.03 0.00 0.00 0.00 0.00 0.00 0.00 0.00 0.00 0.00 0.00 0.00 0.00 0.00 0.00 0.00
0.22 0.19 0.20 0.25 0.38 0.51 0.48 0.19 0.11 0.19 0.68 0.46 0.19 0.10 0.09 0.03 0.07 0.07 0.03 0.09 0.15 0.25 0.34 0.26 0.13 0.07 0.16 0.24 0.01 0.00 0.00 0.00 0.00 0.00 0.00 0.00 0.00 0.00 0.00 0.00 0.00 0.00 0.00 0.00
0.39 0.39 0.49 0.71 0.93 0.94 0.34 0.24 0.27 0.32 0.42 0.48 0.15 0.08 0.28 0.15 0.10 0.13 0.14 0.16 0.26 0.29 0.33 0.20 0.15 0.22 0.21 0.03 0.00 0.00 0.00 0.00 0.00 0.00 0.00 0.00 0.00 0.00 0.00 0.00 0.00 0.00 0.00 0.00
0.69 1.34 1.94 1.73 0.76 0.25 0.38 1.03 1.37 1.17 0.93 0.27 0.06 0.03 0.24 0.31 0.22 0.22 0.25 0.26 0.22 0.32 0.20 0.15 0.21 0.15 0.02 0.00 0.00 0.00 0.00 0.00 0.00 0.00 0.00 0.00 0.00 0.00 0.00 0.00 0.00 0.00 0.00 0.00
2.31 2.29 1.22 0.61 0.43 0.39 0.76 1.18 0.76 0.49 0.44 0.27 0.03 0.01 0.08 0.25 0.52 0.42 0.28 0.33 0.31 0.19 0.12 0.21 0.14 0.02 0.00 0.00 0.00 0.00 0.00 0.00 0.00 0.00 0.00 0.00 0.00 0.00 0.00 0.00 0.00 0.00 0.00 0.00
1.40 0.72 0.62 0.93 0.80 0.50 0.62 0.47 0.29 0.16 0.10 0.03 0.01 0.00 0.03 0.14 0.28 0.66 0.47 0.28 0.26 0.20 0.09 0.23 0.11 0.00 0.00 0.00 0.00 0.00 0.00 0.00 0.00 0.00 0.00 0.00 0.00 0.00 0.00 0.00 0.00 0.00 0.00 0.00
0.99 1.18 0.68 0.39 0.44 0.35 0.17 0.11 0.04 0.04 0.01 0.03 0.02 0.09 0.13 0.21 0.29 0.56 0.50 0.40 0.20 0.13 0.20 0.11 0.01 0.00 0.00 0.00 0.00 0.00 0.00 0.00 0.00 0.00 0.00 0.00 0.00 0.00 0.00 0.00 0.00 0.00 0.00 0.00
1.07 0.88 0.38 0.14 0.23 0.06 0.01 0.00 0.00 0.00 0.00 0.02 0.04 0.13 0.35 0.21 0.27 0.34 0.34 0.17 0.19 0.13 0.06 0.05 0.00 0.00 0.00 0.00 0.00 0.01 0.01 0.00 0.00 0.00 0.00 0.00 0.00 0.00 0.00 0.00 0.00 0.00 0.00 0.00
0.39 0.16 0.06 0.01 0.01 0.01 0.00 0.00 0.01 0.01 0.01 0.07 0.12 0.15 0.38 0.33 0.25 0.30 0.26 0.28 0.20 0.11 0.01 0.00 0.02 0.00 0.00 0.00 0.00 0.00 0.01 0.00 0.00 0.00 0.00 0.00 0.00 0.00 0.00 0.00 0.00 0.00 0.00 0.00
0.13 0.06 0.07 0.03 0.02 0.03 0.02 0.02 0.05 0.04 0.10 0.11 0.24 0.41 0.50 0.56 0.26 0.23 0.26 0.12 0.11 0.01 0.00 0.00 0.00 0.00 0.00 0.00 0.00 0.00 0.00 0.00 0.00 0.00 0.00 0.00 0.00 0.00 0.00 0.00 0.00 0.00 0.00 0.00
0.07 0.04 0.03 0.06 0.06 0.06 0.03 0.02 0.02 0.04 0.11 0.16 0.25 0.36 0.48 0.43 0.34 0.10 0.06 0.07 0.00 0.00 0.00 0.00 0.00 0.00 0.00 0.00 0.00 0.00 0.00 0.00 0.00 0.00 0.00 0.00 0.00 0.00 0.00 0.00 0.00 0.00 0.00 0.00